sat.trackr.live / text

‹ back to catalog

STARLINK-2232

NORAD 48578 · 2021-041AB

PAYLOAD ACTIVE UNKNOWN

§ Identity

Operator
Country
US
Launch date
2021-05-15
Launch site
AFETR
Launch vehicle
Mass (kg)
RCS (m²)

Purposes: comms

External: N2YO · Heavens-Above · Gunter

§ Orbital elements

Epoch: 2026-09-10T04:02:55.483008Z

Period
94.01 min
Inclination
53.1603°
Eccentricity
0.0001243
Mean motion
15.31686670 rev/d
Perigee alt
469.9 km
Apogee alt
471.6 km
Semi-major
6,848.9 km
B*
2.9394e-4
RAAN
348.2318°
Arg perigee
78.2584°
Mean anomaly
281.8557°
Rev number
29,354

§ Raw data

STARLINK-22321 48578U 21041AB  26253.16869772  .00008763  00000+0  29394-3 0  99972 48578  53.1603 348.2318 0001243  78.2584 281.8557 15.31686670293547

JSON: /api/v1/satellites/48578 · /tle

For live sub-satellite position, see the globe view (requires WebGL).

§ Visibility from observer

Set your observer location to see the next 7 days of passes ≥ 10°. The values pass through the URL so the page stays shareable.

No JS? Fill the form by hand. The geolocation button needs JavaScript.